Location: Tierra del Sol
(32.6128°N, 116.3319°W)
Time: 07:55:13
(UTC-07:00)

Tiangong 1 - Pass Details

Date: 15 October 2017
Orbit: 294 x 321 km, 42.8° (Epoch: 17 October)

Event Time Altitude Azimuth Distance (km) Brightness Sun altitude
Rises 18:43:38 0° 309° (NW) 2,042 5.5 -7.4°
Reaches altitude 10° 18:45:53 10° 326° (NW) 1,206 4.0 -7.9°
Maximum altitude 18:48:05 22° 21° (NNE) 745 2.3 -8.4°
Enters shadow 18:49:53 12° 70° (ENE) 1,067 2.7 -8.7°
